�������r�C�����j�^�v���󋵏��
Date,Time,5�C6���@���p�r�C��,����,����(m/s)
2022/02/15,00:00,4.1,�k��,1.5
2022/02/15,00:10,4.1,�k��,0.8
2022/02/15,00:20,4.0,-,CALM
2022/02/15,00:30,4.0,�k,1.2
2022/02/15,00:40,4.0,�k�k��,0.6
2022/02/15,00:50,4.1,�쐼,0.8
2022/02/15,01:00,4.0,�쐼,0.8
2022/02/15,01:10,4.0,���k��,0.6
2022/02/15,01:20,4.1,��쓌,0.9
2022/02/15,01:30,4.1,-,CALM
2022/02/15,01:40,4.1,��,1.1
2022/02/15,01:50,4.2,��,1.4
2022/02/15,02:00,4.1,-,CALM
2022/02/15,02:10,4.0,��쓌,1.7
2022/02/15,02:20,4.1,�쓌,1.2
2022/02/15,02:30,4.0,��쓌,1.5
2022/02/15,02:40,4.0,��쓌,1.5
2022/02/15,02:50,4.0,��쐼,2.0
2022/02/15,03:00,4.0,��쐼,2.2
2022/02/15,03:10,4.1,��,2.3
2022/02/15,03:20,4.2,��쓌,2.2
2022/02/15,03:30,4.1,��,1.2
2022/02/15,03:40,4.2,��,2.2
2022/02/15,03:50,4.1,��,1.7
2022/02/15,04:00,4.2,��,1.9
2022/02/15,04:10,4.2,��,2.2
2022/02/15,04:20,4.1,��쓌,2.0
2022/02/15,04:30,4.0,��,2.3
2022/02/15,04:40,4.0,��,3.1
2022/02/15,04:50,4.1,��,3.0
2022/02/15,05:00,4.1,��,2.9
2022/02/15,05:10,4.0,��,2.6
2022/02/15,05:20,4.0,��쐼,3.1
2022/02/15,05:30,4.2,��,2.6
2022/02/15,05:40,4.1,��,2.0
2022/02/15,05:50,4.1,��,2.9
2022/02/15,06:00,4.1,��쓌,2.3
2022/02/15,06:10,4.2,��쓌,3.0
2022/02/15,06:20,4.1,��쓌,3.0
2022/02/15,06:30,4.1,��쓌,3.1
2022/02/15,06:40,4.0,�쓌,3.0
2022/02/15,06:50,4.0,��쓌,4.0
2022/02/15,07:00,4.1,�쓌,5.2
2022/02/15,07:10,4.2,��쓌,5.0
2022/02/15,07:20,4.0,�쓌,4.3
2022/02/15,07:30,4.0,�쓌,4.7
2022/02/15,07:40,4.2,��쓌,3.9
2022/02/15,07:50,4.1,��쓌,4.7
2022/02/15,08:00,4.0,��쓌,5.3
2022/02/15,08:10,4.1,��쓌,4.3
2022/02/15,08:20,4.2,��쓌,5.0
2022/02/15,08:30,3.9,��쓌,4.5
2022/02/15,08:40,4.2,��,5.2
2022/02/15,08:50,4.1,�쓌,4.0
2022/02/15,09:00,4.1,��쓌,4.7
2022/02/15,09:10,4.0,��쓌,4.7
2022/02/15,09:20,4.2,��쓌,5.5
2022/02/15,09:30,4.2,��쓌,4.7
2022/02/15,09:40,4.0,��쓌,5.4
2022/02/15,09:50,3.9,��쓌,5.7
2022/02/15,10:00,4.1,��쓌,5.1
2022/02/15,10:10,4.0,��쓌,4.7
2022/02/15,10:20,4.2,��쓌,5.8
2022/02/15,10:30,4.2,��쓌,5.9
2022/02/15,10:40,4.1,��쓌,6.7
2022/02/15,10:50,4.2,��쓌,7.3
2022/02/15,11:00,3.9,��쓌,7.2
2022/02/15,11:10,4.3,��쓌,7.5
2022/02/15,11:20,4.2,��쓌,7.1
2022/02/15,11:30,4.3,��쓌,6.8
2022/02/15,11:40,4.1,��쓌,5.8
2022/02/15,11:50,3.9,��쓌,6.1
2022/02/15,12:00,4.1,��쓌,6.2
2022/02/15,12:10,4.1,��쓌,5.7
2022/02/15,12:20,4.0,��쓌,6.1
2022/02/15,12:30,4.0,��쓌,6.1
2022/02/15,12:40,4.2,��쓌,5.6
2022/02/15,12:50,4.1,��쓌,5.1
2022/02/15,13:00,4.1,��쓌,5.0
2022/02/15,13:10,4.1,��쓌,5.0
2022/02/15,13:20,4.1,��쓌,4.8
2022/02/15,13:30,4.0,��쓌,5.1
2022/02/15,13:40,4.2,��쓌,6.8
2022/02/15,13:50,4.0,��쓌,6.1
2022/02/15,14:00,4.2,�쓌,6.1
2022/02/15,14:10,4.2,��쓌,5.8
2022/02/15,14:20,4.1,�쓌,7.2
2022/02/15,14:30,4.1,��쓌,6.6
2022/02/15,14:40,4.2,��쓌,6.3
2022/02/15,14:50,4.0,��쓌,6.0
2022/02/15,15:00,3.9,��쓌,7.5
2022/02/15,15:10,4.0,��쓌,7.5
2022/02/15,15:20,4.0,��쓌,6.6
2022/02/15,15:30,4.1,��쓌,6.6
2022/02/15,15:40,4.2,��쓌,7.4
2022/02/15,15:50,4.1,��쓌,5.3
2022/02/15,16:00,4.1,��,5.1
2022/02/15,16:10,3.9,��,4.1
2022/02/15,16:20,4.2,��,3.7
2022/02/15,16:30,4.1,��쓌,3.1
2022/02/15,16:40,4.0,��쓌,2.2
2022/02/15,16:50,4.0,��,1.9
2022/02/15,17:00,4.1,��,1.9
2022/02/15,17:10,4.2,��쐼,2.6
2022/02/15,17:20,4.1,��쐼,3.5
2022/02/15,17:30,4.2,��쐼,4.4
2022/02/15,17:40,4.1,��,4.8
2022/02/15,17:50,4.2,��,5.7
2022/02/15,18:00,4.0,��,5.8
2022/02/15,18:10,4.2,��쓌,3.6
2022/02/15,18:20,4.1,��쓌,3.4
2022/02/15,18:30,4.2,��,2.9
2022/02/15,18:40,4.0,��,2.2
2022/02/15,18:50,4.1,��,2.0
2022/02/15,19:00,4.2,�k��,2.2
2022/02/15,19:10,4.1,�k��,2.6
2022/02/15,19:20,4.0,�k�k��,3.2
2022/02/15,19:30,4.1,�k�k��,3.4
2022/02/15,19:40,4.0,�k,3.3
2022/02/15,19:50,4.2,�k,2.5
2022/02/15,20:00,4.1,�k�k��,3.0
2022/02/15,20:10,4.0,�k,2.2
2022/02/15,20:20,4.1,�k,2.2
2022/02/15,20:30,4.1,�k�k��,3.5
2022/02/15,20:40,4.0,�k�k��,4.1
2022/02/15,20:50,4.0,�k,3.1
2022/02/15,21:00,4.0,�k,2.9
2022/02/15,21:10,3.9,�k,2.6
2022/02/15,21:20,4.0,�k�k��,3.1
2022/02/15,21:30,4.3,�k�k��,3.7
2022/02/15,21:40,4.1,�k�k��,4.2
2022/02/15,21:50,4.0,�k�k��,4.9
2022/02/15,22:00,3.9,�k�k��,6.3
2022/02/15,22:10,4.3,�k�k��,7.0
2022/02/15,22:20,4.3,�k�k��,6.7
2022/02/15,22:30,4.2,�k�k��,6.7
2022/02/15,22:40,4.3,�k�k��,6.7
2022/02/15,22:50,4.0,�k�k��,5.7
2022/02/15,23:00,4.0,�k�k��,5.1
2022/02/15,23:10,4.0,�k�k��,6.1
2022/02/15,23:20,4.0,�k�k��,6.8
2022/02/15,23:30,4.1,�k�k��,5.6
2022/02/15,23:40,4.0,�k�k��,6.5
2022/02/15,23:50,4.2,�k�k��,6.0
